P/2019 S3 ( PanSTARRS )

Japanese version
Home page
Updated on November 9, 2019

---------------------------------------------------------------------

* Profile

Discovery Date September 25, 2019
Magnitude 20.7 mag
Discoverer Pan-STARRS 1 telescope (Haleakala)

* Orbital Elements

Epoch 2019 Aug. 25.0 TT = JDT 2458720.5
T 2019 Aug. 26.09649 TT                                 Williams
q   1.8067896            (2000.0)            P               Q
n   0.15631465     Peri.  212.95081     +0.99540903     -0.05923846
a   3.4129998      Node   150.17014     +0.07767747     +0.95889625
e   0.4706154      Incl.    8.69260     -0.05592028     +0.27750455
P   6.31
From 56 observations 2019 Aug. 27-Nov. 2, mean residual 0".5.

* Magnitudes Graph

        m1 = 17.5 + 5 log d + 10.0 log r

---------------------------------------------------------------------

The orbital elements are published on M.P.E.C. 2019-V116.
The magnitudes graphs are made with Comet for Windows.

---------------------------------------------------------------------

Copyright(C) Seiichi Yoshida (comet@aerith.net). All rights reserved.